QPF
0.11 0.09 0.06 0.04 0.03 0.02 0.01 0.01 0.00 0.00 0.00 0.00 0.00 0.00 0.00 0.00 0.00 0.00 0.00 0.00 0.01 0.02 0.03 0.05 0.08 0.12 0.15 0.13 0.12 0.12 0.11 0.08 0.05 0.04 0.04 0.03 0.02 0.02 0.02 0.01 0.00 0.00 0.00
0.13 0.11 0.07 0.05 0.03 0.02 0.01 0.01 0.00 0.00 0.00 0.00 0.00 0.00 0.00 0.00 0.00 0.00 0.00 0.00 0.00 0.00 0.00 0.01 0.03 0.06 0.08 0.11 0.12 0.12 0.13 0.13 0.10 0.09 0.07 0.05 0.04 0.04 0.03 0.02 0.02 0.01 0.00
0.14 0.15 0.10 0.06 0.04 0.03 0.02 0.01 0.01 0.00 0.00 0.01 0.00 0.00 0.00 0.00 0.00 0.00 0.00 0.00 0.00 0.00 0.00 0.00 0.01 0.02 0.03 0.06 0.10 0.12 0.14 0.17 0.17 0.14 0.10 0.07 0.05 0.04 0.03 0.02 0.01 0.01 0.01
0.21 0.22 0.19 0.13 0.08 0.06 0.04 0.03 0.02 0.01 0.01 0.01 0.01 0.01 0.01 0.01 0.01 0.01 0.01 0.00 0.00 0.00 0.00 0.00 0.00 0.01 0.02 0.03 0.06 0.09 0.14 0.19 0.23 0.22 0.18 0.12 0.08 0.06 0.04 0.02 0.01 0.01 0.01
0.22 0.24 0.23 0.17 0.12 0.09 0.06 0.05 0.04 0.03 0.02 0.02 0.02 0.02 0.02 0.02 0.03 0.02 0.01 0.00 0.00 0.00 0.00 0.00 0.00 0.00 0.01 0.03 0.05 0.07 0.12 0.18 0.23 0.25 0.23 0.19 0.13 0.09 0.06 0.04 0.02 0.01 0.00
0.18 0.21 0.19 0.15 0.11 0.09 0.08 0.07 0.05 0.04 0.04 0.03 0.03 0.03 0.03 0.03 0.04 0.03 0.02 0.00 0.00 0.00 0.00 0.00 0.00 0.00 0.01 0.02 0.05 0.07 0.09 0.14 0.20 0.25 0.25 0.22 0.18 0.13 0.09 0.05 0.02 0.01 0.01
0.12 0.15 0.15 0.12 0.12 0.12 0.10 0.07 0.06 0.05 0.04 0.04 0.04 0.03 0.02 0.04 0.05 0.03 0.03 0.01 0.01 0.01 0.00 0.00 0.00 0.00 0.00 0.01 0.03 0.05 0.07 0.10 0.14 0.19 0.24 0.24 0.22 0.18 0.12 0.07 0.03 0.02 0.01
0.06 0.07 0.07 0.07 0.07 0.06 0.05 0.04 0.04 0.04 0.04 0.04 0.03 0.02 0.02 0.03 0.04 0.03 0.04 0.02 0.02 0.02 0.01 0.00 0.00 0.00 0.00 0.00 0.00 0.01 0.01 0.03 0.06 0.09 0.12 0.17 0.20 0.21 0.17 0.13 0.09 0.05 0.02
0.01 0.01 0.01 0.01 0.01 0.01 0.01 0.01 0.01 0.01 0.02 0.02 0.02 0.02 0.01 0.02 0.04 0.04 0.04 0.03 0.03 0.03 0.02 0.01 0.00 0.00 0.01 0.01 0.00 0.00 0.00 0.01 0.02 0.04 0.07 0.09 0.10 0.11 0.12 0.11 0.10 0.08 0.05
0.00 0.00 0.00 0.00 0.00 0.00 0.00 0.00 0.00 0.00 0.00 0.00 0.00 0.01 0.01 0.02 0.04 0.04 0.05 0.04 0.05 0.04 0.02 0.02 0.03 0.03 0.02 0.02 0.01 0.00 0.00 0.01 0.01 0.02 0.03 0.04 0.04 0.05 0.07 0.07 0.08 0.08 0.06
0.00 0.00 0.00 0.00 0.00 0.00 0.00 0.00 0.00 0.00 0.00 0.00 0.00 0.00 0.01 0.01 0.02 0.04 0.06 0.06 0.07 0.05 0.03 0.03 0.03 0.03 0.02 0.02 0.02 0.01 0.01 0.01 0.01 0.01 0.02 0.02 0.03 0.04 0.05 0.06 0.06 0.06 0.05
0.00 0.00 0.00 0.00 0.00 0.00 0.00 0.00 0.00 0.00 0.00 0.00 0.00 0.00 0.00 0.00 0.01 0.01 0.02 0.04 0.05 0.05 0.05 0.04 0.04 0.03 0.02 0.02 0.01 0.02 0.03 0.02 0.02 0.02 0.01 0.01 0.01 0.01 0.02 0.02 0.03 0.03 0.03
0.00 0.00 0.00 0.00 0.00 0.00 0.00 0.00 0.00 0.00 0.00 0.00 0.00 0.00 0.00 0.00 0.00 0.00 0.00 0.02 0.04 0.04 0.04 0.04 0.04 0.03 0.02 0.02 0.02 0.03 0.03 0.03 0.03 0.03 0.02 0.01 0.01 0.00 0.00 0.01 0.01 0.01 0.01
0.00 0.00 0.00 0.00 0.00 0.00 0.00 0.00 0.00 0.00 0.00 0.00 0.00 0.00 0.00 0.00 0.00 0.00 0.00 0.00 0.01 0.02 0.03 0.04 0.05 0.04 0.03 0.02 0.03 0.03 0.03 0.03 0.03 0.03 0.03 0.02 0.01 0.01 0.00 0.00 0.00 0.00 0.00
0.00 0.00 0.00 0.00 0.00 0.00 0.00 0.00 0.00 0.00 0.00 0.00 0.00 0.00 0.00 0.00 0.00 0.00 0.01 0.01 0.02 0.02 0.04 0.06 0.06 0.06 0.05 0.04 0.04 0.04 0.04 0.04 0.04 0.04 0.03 0.02 0.01 0.01 0.00 0.00 0.00 0.00 0.00
0.00 0.00 0.00 0.00 0.00 0.00 0.00 0.00 0.00 0.00 0.00 0.00 0.00 0.00 0.00 0.00 0.00 0.00 0.01 0.03 0.03 0.05 0.06 0.07 0.08 0.08 0.08 0.08 0.07 0.07 0.05 0.04 0.03 0.03 0.03 0.02 0.02 0.01 0.01 0.00 0.00 0.00 0.00
0.00 0.00 0.00 0.00 0.00 0.00 0.00 0.00 0.00 0.00 0.00 0.00 0.00 0.00 0.00 0.00 0.00 0.00 0.01 0.02 0.03 0.06 0.08 0.10 0.10 0.10 0.10 0.11 0.12 0.10 0.05 0.03 0.02 0.03 0.03 0.02 0.02 0.02 0.01 0.01 0.00 0.00 0.00
0.00 0.00 0.00 0.00 0.00 0.00 0.00 0.00 0.00 0.00 0.00 0.00 0.00 0.00 0.00 0.00 0.00 0.01 0.01 0.03 0.04 0.07 0.09 0.11 0.14 0.12 0.11 0.11 0.10 0.07 0.03 0.02 0.02 0.02 0.02 0.02 0.02 0.02 0.02 0.01 0.01 0.00 0.00
0.00 0.00 0.00 0.00 0.00 0.00 0.00 0.00 0.00 0.00 0.00 0.00 0.00 0.00 0.00 0.00 0.00 0.00 0.02 0.03 0.04 0.06 0.07 0.07 0.08 0.07 0.05 0.04 0.04 0.04 0.03 0.02 0.01 0.00 0.00 0.01 0.01 0.01 0.01 0.01 0.01 0.01 0.00
0.00 0.00 0.00 0.00 0.00 0.00 0.00 0.00 0.00 0.00 0.00 0.00 0.00 0.00 0.00 0.00 0.00 0.00 0.00 0.00 0.01 0.01 0.02 0.02 0.02 0.02 0.02 0.01 0.01 0.01 0.01 0.01 0.00 0.00 0.00 0.00 0.00 0.00 0.01 0.01 0.01 0.01 0.01
0.00 0.00 0.00 0.00 0.00 0.00 0.00 0.00 0.00 0.00 0.00 0.00 0.00 0.00 0.00 0.00 0.00 0.00 0.00 0.00 0.00 0.00 0.00 0.00 0.00 0.00 0.00 0.00 0.00 0.00 0.00 0.00 0.00 0.00 0.00 0.00 0.00 0.00 0.00 0.00 0.00 0.01 0.01
0.00 0.00 0.00 0.00 0.00 0.00 0.00 0.00 0.00 0.00 0.00 0.00 0.00 0.00 0.00 0.00 0.00 0.00 0.00 0.00 0.00 0.00 0.00 0.00 0.00 0.00 0.00 0.00 0.00 0.00 0.00 0.00 0.00 0.00 0.00 0.00 0.00 0.00 0.00 0.00 0.00 0.01 0.01
0.00 0.00 0.00 0.00 0.00 0.00 0.00 0.00 0.00 0.00 0.00 0.00 0.00 0.00 0.00 0.00 0.00 0.00 0.00 0.00 0.00 0.00 0.00 0.00 0.00 0.00 0.00 0.00 0.00 0.00 0.00 0.00 0.00 0.00 0.00 0.00 0.00 0.00 0.00 0.00 0.00 0.00 0.01
0.00 0.00 0.00 0.00 0.00 0.00 0.00 0.00 0.00 0.00 0.00 0.00 0.00 0.00 0.00 0.00 0.00 0.00 0.00 0.00 0.00 0.00 0.00 0.00 0.00 0.00 0.00 0.00 0.00 0.00 0.00 0.00 0.00 0.00 0.00 0.00 0.00 0.00 0.00 0.00 0.00 0.00 0.01
0.00 0.00 0.00 0.00 0.00 0.00 0.00 0.00 0.00 0.00 0.00 0.00 0.00 0.00 0.00 0.00 0.00 0.00 0.00 0.00 0.00 0.00 0.00 0.00 0.00 0.00 0.00 0.00 0.00 0.00 0.00 0.00 0.00 0.00 0.00 0.00 0.00 0.00 0.00 0.00 0.00 0.00 0.00
0.00 0.00 0.00 0.00 0.00 0.00 0.00 0.00 0.00 0.00 0.00 0.00 0.00 0.00 0.00 0.00 0.00 0.00 0.00 0.00 0.00 0.00 0.00 0.00 0.00 0.00 0.00 0.00 0.00 0.00 0.00 0.00 0.00 0.00 0.00 0.00 0.00 0.00 0.00 0.00 0.00 0.00 0.00
MSLP
1011.14 1011.13 1011.12 1011.14 1011.19 1011.29 1011.43 1011.62 1011.84 1012.07 1012.30 1012.51 1012.69 1012.83 1012.94 1013.03 1013.11 1013.20 1013.29 1013.41 1013.54 1013.69 1013.84 1014.00 1014.15 1014.29 1014.42 1014.56 1014.71 1014.87 1015.05 1015.24 1015.44 1015.64 1015.85 1016.05 1016.24 1016.43 1016.61 1016.79 1016.98 1017.18 1017.38
1011.03 1010.95 1010.90 1010.89 1010.94 1011.05 1011.23 1011.45 1011.70 1011.97 1012.22 1012.45 1012.63 1012.77 1012.88 1012.97 1013.05 1013.14 1013.25 1013.37 1013.50 1013.63 1013.76 1013.87 1013.96 1014.03 1014.10 1014.17 1014.27 1014.39 1014.56 1014.76 1014.99 1015.25 1015.51 1015.76 1016.00 1016.22 1016.43 1016.62 1016.81 1017.00 1017.20
1010.98 1010.86 1010.78 1010.76 1010.81 1010.93 1011.12 1011.36 1011.62 1011.89 1012.14 1012.35 1012.52 1012.64 1012.74 1012.82 1012.90 1013.00 1013.12 1013.26 1013.40 1013.54 1013.66 1013.75 1013.81 1013.84 1013.86 1013.89 1013.94 1014.04 1014.19 1014.40 1014.66 1014.95 1015.25 1015.54 1015.81 1016.06 1016.27 1016.46 1016.64 1016.81 1016.98
1011.08 1010.93 1010.84 1010.81 1010.86 1010.98 1011.17 1011.39 1011.63 1011.87 1012.08 1012.25 1012.38 1012.46 1012.52 1012.58 1012.66 1012.76 1012.89 1013.05 1013.22 1013.38 1013.51 1013.61 1013.66 1013.68 1013.68 1013.68 1013.71 1013.79 1013.93 1014.14 1014.41 1014.71 1015.04 1015.35 1015.64 1015.89 1016.10 1016.27 1016.43 1016.57 1016.72
1011.40 1011.24 1011.14 1011.10 1011.14 1011.24 1011.39 1011.57 1011.76 1011.94 1012.08 1012.18 1012.23 1012.26 1012.27 1012.29 1012.34 1012.43 1012.57 1012.75 1012.94 1013.13 1013.30 1013.42 1013.49 1013.52 1013.51 1013.51 1013.53 1013.60 1013.73 1013.93 1014.19 1014.50 1014.82 1015.14 1015.43 1015.67 1015.87 1016.03 1016.16 1016.28 1016.38
1011.94 1011.77 1011.66 1011.61 1011.62 1011.68 1011.78 1011.90 1012.02 1012.11 1012.16 1012.17 1012.14 1012.09 1012.03 1012.00 1012.01 1012.08 1012.21 1012.40 1012.61 1012.83 1013.02 1013.18 1013.27 1013.32 1013.34 1013.34 1013.36 1013.42 1013.54 1013.72 1013.97 1014.26 1014.57 1014.87 1015.15 1015.39 1015.58 1015.72 1015.83 1015.92 1016.00
1012.65 1012.48 1012.36 1012.28 1012.25 1012.26 1012.30 1012.35 1012.38 1012.38 1012.34 1012.26 1012.14 1012.00 1011.88 1011.78 1011.74 1011.78 1011.88 1012.06 1012.27 1012.50 1012.72 1012.90 1013.03 1013.10 1013.14 1013.15 1013.17 1013.22 1013.33 1013.49 1013.70 1013.97 1014.25 1014.54 1014.80 1015.02 1015.21 1015.34 1015.45 1015.52 1015.58
1013.44 1013.27 1013.14 1013.04 1012.97 1012.93 1012.90 1012.87 1012.83 1012.75 1012.63 1012.47 1012.28 1012.07 1011.87 1011.71 1011.62 1011.60 1011.66 1011.80 1011.99 1012.21 1012.43 1012.62 1012.76 1012.86 1012.91 1012.94 1012.96 1013.00 1013.09 1013.22 1013.40 1013.63 1013.88 1014.14 1014.39 1014.61 1014.79 1014.93 1015.04 1015.12 1015.18
1014.20 1014.05 1013.90 1013.78 1013.68 1013.59 1013.51 1013.43 1013.33 1013.20 1013.03 1012.82 1012.57 1012.31 1012.06 1011.84 1011.68 1011.60 1011.60 1011.68 1011.82 1012.01 1012.20 1012.38 1012.52 1012.62 1012.68 1012.72 1012.74 1012.77 1012.84 1012.94 1013.09 1013.28 1013.51 1013.74 1013.98 1014.19 1014.38 1014.54 1014.67 1014.76 1014.84
1014.87 1014.73 1014.58 1014.44 1014.32 1014.20 1014.09 1013.98 1013.85 1013.70 1013.50 1013.27 1013.00 1012.71 1012.42 1012.16 1011.94 1011.79 1011.72 1011.72 1011.79 1011.91 1012.05 1012.19 1012.32 1012.41 1012.48 1012.51 1012.54 1012.57 1012.62 1012.70 1012.82 1012.98 1013.18 1013.39 1013.62 1013.83 1014.03 1014.21 1014.36 1014.48 1014.58
1015.40 1015.27 1015.13 1014.99 1014.86 1014.73 1014.62 1014.50 1014.37 1014.22 1014.03 1013.80 1013.54 1013.24 1012.93 1012.63 1012.36 1012.14 1011.99 1011.91 1011.89 1011.93 1012.00 1012.09 1012.18 1012.26 1012.32 1012.36 1012.39 1012.42 1012.46 1012.53 1012.64 1012.77 1012.94 1013.14 1013.35 1013.57 1013.78 1013.98 1014.15 1014.29 1014.41
1015.76 1015.66 1015.54 1015.42 1015.29 1015.18 1015.07 1014.96 1014.85 1014.72 1014.57 1014.37 1014.12 1013.83 1013.52 1013.20 1012.88 1012.60 1012.37 1012.19 1012.08 1012.03 1012.03 1012.06 1012.12 1012.18 1012.23 1012.28 1012.32 1012.36 1012.42 1012.48 1012.58 1012.70 1012.85 1013.02 1013.22 1013.43 1013.64 1013.84 1014.03 1014.19 1014.32
1016.00 1015.93 1015.84 1015.74 1015.63 1015.54 1015.45 1015.37 1015.29 1015.20 1015.07 1014.91 1014.69 1014.42 1014.11 1013.78 1013.43 1013.09 1012.78 1012.53 1012.33 1012.20 1012.13 1012.11 1012.12 1012.17 1012.22 1012.29 1012.35 1012.42 1012.49 1012.56 1012.66 1012.76 1012.90 1013.05 1013.22 1013.42 1013.61 1013.81 1013.99 1014.15 1014.28
1016.13 1016.10 1016.04 1015.98 1015.90 1015.84 1015.78 1015.73 1015.67 1015.61 1015.51 1015.38 1015.19 1014.94 1014.64 1014.30 1013.93 1013.55 1013.19 1012.88 1012.61 1012.42 1012.29 1012.22 1012.22 1012.25 1012.32 1012.40 1012.50 1012.59 1012.68 1012.78 1012.87 1012.97 1013.08 1013.21 1013.35 1013.51 1013.68 1013.85 1014.01 1014.16 1014.27
1016.19 1016.20 1016.19 1016.17 1016.13 1016.09 1016.06 1016.03 1015.99 1015.94 1015.87 1015.75 1015.58 1015.35 1015.06 1014.73 1014.35 1013.96 1013.57 1013.22 1012.91 1012.68 1012.51 1012.42 1012.41 1012.44 1012.53 1012.64 1012.76 1012.88 1013.00 1013.11 1013.21 1013.30 1013.38 1013.47 1013.58 1013.69 1013.81 1013.94 1014.06 1014.18 1014.27
1016.20 1016.26 1016.30 1016.32 1016.32 1016.31 1016.30 1016.28 1016.25 1016.21 1016.14 1016.03 1015.87 1015.65 1015.38 1015.06 1014.69 1014.31 1013.92 1013.57 1013.26 1013.01 1012.84 1012.74 1012.72 1012.77 1012.87 1013.00 1013.15 1013.29 1013.43 1013.54 1013.64 1013.71 1013.77 1013.82 1013.87 1013.92 1013.99 1014.06 1014.14 1014.22 1014.28
1016.18 1016.29 1016.38 1016.45 1016.49 1016.51 1016.51 1016.50 1016.46 1016.41 1016.34 1016.22 1016.07 1015.87 1015.62 1015.32 1014.99 1014.64 1014.29 1013.97 1013.68 1013.45 1013.29 1013.20 1013.19 1013.25 1013.36 1013.50 1013.66 1013.81 1013.94 1014.06 1014.13 1014.18 1014.20 1014.21 1014.20 1014.20 1014.21 1014.22 1014.24 1014.26 1014.28
1016.13 1016.29 1016.43 1016.55 1016.63 1016.68 1016.70 1016.68 1016.64 1016.58 1016.49 1016.38 1016.23 1016.04 1015.83 1015.58 1015.30 1015.02 1014.73 1014.45 1014.22 1014.02 1013.90 1013.83 1013.83 1013.89 1013.99 1014.12 1014.27 1014.41 1014.53 1014.62 1014.66 1014.68 1014.66 1014.62 1014.56 1014.50 1014.45 1014.40 1014.37 1014.34 1014.32
1016.04 1016.26 1016.46 1016.62 1016.75 1016.83 1016.86 1016.85 1016.81 1016.74 1016.64 1016.52 1016.38 1016.23 1016.06 1015.87 1015.67 1015.46 1015.25 1015.06 1014.89 1014.75 1014.66 1014.61 1014.62 1014.66 1014.75 1014.85 1014.96 1015.06 1015.14 1015.19 1015.20 1015.17 1015.11 1015.02 1014.92 1014.81 1014.71 1014.61 1014.53 1014.46 1014.39
1015.93 1016.20 1016.45 1016.67 1016.84 1016.95 1017.01 1017.01 1016.97 1016.89 1016.80 1016.69 1016.57 1016.46 1016.34 1016.22 1016.11 1015.99 1015.87 1015.77 1015.67 1015.59 1015.54 1015.51 1015.51 1015.53 1015.58 1015.63 1015.69 1015.73 1015.75 1015.74 1015.71 1015.63 1015.53 1015.41 1015.27 1015.12 1014.98 1014.85 1014.72 1014.61 1014.50
1015.82 1016.13 1016.43 1016.70 1016.91 1017.06 1017.14 1017.16 1017.13 1017.06 1016.98 1016.89 1016.80 1016.73 1016.68 1016.64 1016.61 1016.58 1016.56 1016.54 1016.52 1016.50 1016.47 1016.45 1016.43 1016.42 1016.41 1016.40 1016.38 1016.35 1016.31 1016.24 1016.15 1016.04 1015.90 1015.75 1015.59 1015.42 1015.26 1015.10 1014.95 1014.80 1014.66
1015.71 1016.05 1016.39 1016.70 1016.95 1017.14 1017.24 1017.29 1017.28 1017.23 1017.17 1017.10 1017.06 1017.04 1017.04 1017.08 1017.13 1017.19 1017.26 1017.31 1017.35 1017.37 1017.37 1017.35 1017.31 1017.25 1017.18 1017.09 1017.00 1016.89 1016.78 1016.65 1016.51 1016.36 1016.21 1016.04 1015.87 1015.70 1015.53 1015.36 1015.20 1015.03 1014.86
1015.62 1015.98 1016.34 1016.68 1016.96 1017.18 1017.31 1017.39 1017.40 1017.38 1017.35 1017.32 1017.31 1017.33 1017.40 1017.49 1017.61 1017.75 1017.88 1018.00 1018.08 1018.14 1018.15 1018.12 1018.04 1017.94 1017.81 1017.65 1017.49 1017.31 1017.14 1016.96 1016.79 1016.61 1016.44 1016.28 1016.12 1015.95 1015.79 1015.63 1015.46 1015.30 1015.11
1015.56 1015.91 1016.28 1016.63 1016.93 1017.17 1017.33 1017.43 1017.48 1017.49 1017.48 1017.49 1017.52 1017.58 1017.69 1017.83 1018.01 1018.19 1018.38 1018.54 1018.66 1018.73 1018.75 1018.70 1018.61 1018.46 1018.28 1018.07 1017.85 1017.62 1017.40 1017.19 1016.99 1016.81 1016.64 1016.49 1016.34 1016.20 1016.06 1015.92 1015.76 1015.60 1015.41
1015.49 1015.83 1016.19 1016.53 1016.84 1017.10 1017.29 1017.41 1017.49 1017.53 1017.56 1017.59 1017.66 1017.76 1017.90 1018.08 1018.29 1018.51 1018.72 1018.91 1019.05 1019.14 1019.15 1019.10 1018.99 1018.82 1018.60 1018.36 1018.10 1017.84 1017.60 1017.37 1017.16 1016.98 1016.83 1016.70 1016.58 1016.47 1016.36 1016.24 1016.10 1015.95 1015.77
1015.41 1015.72 1016.05 1016.39 1016.69 1016.96 1017.16 1017.31 1017.42 1017.50 1017.56 1017.63 1017.72 1017.85 1018.02 1018.22 1018.45 1018.69 1018.93 1019.13 1019.28 1019.37 1019.40 1019.35 1019.23 1019.05 1018.82 1018.57 1018.30 1018.03 1017.78 1017.55 1017.36 1017.19 1017.06 1016.95 1016.86 1016.78 1016.70 1016.61 1016.50 1016.37 1016.21
Thickness
5696 5696 5697 5698 5698 5698 5697 5697 5696 5695 5693 5690 5688 5686 5684 5681 5679 5677 5674 5673 5671 5670 5669 5668 5667 5667 5666 5666 5667 5667 5666 5666 5666 5670 5673 5676 5677 5677 5678 5677 5677 5676 5677
5695 5695 5695 5695 5695 5694 5693 5692 5691 5689 5688 5686 5683 5680 5678 5676 5673 5671 5669 5668 5666 5665 5664 5664 5664 5664 5665 5665 5666 5666 5666 5666 5666 5667 5669 5671 5673 5674 5675 5675 5675 5675 5675
5695 5695 5694 5693 5692 5690 5689 5688 5687 5685 5683 5681 5678 5675 5673 5671 5669 5666 5665 5663 5662 5661 5661 5660 5661 5661 5662 5663 5665 5666 5666 5666 5666 5665 5666 5668 5669 5670 5670 5670 5671 5672 5672
5693 5692 5692 5691 5689 5688 5687 5685 5682 5680 5678 5676 5674 5671 5669 5667 5664 5662 5660 5659 5658 5657 5657 5657 5657 5658 5659 5660 5662 5663 5664 5664 5664 5663 5662 5663 5664 5665 5666 5666 5666 5668 5669
5688 5686 5685 5685 5684 5683 5682 5680 5678 5676 5675 5672 5669 5667 5665 5662 5661 5659 5657 5655 5653 5653 5653 5653 5654 5655 5657 5658 5659 5660 5660 5661 5661 5660 5660 5660 5660 5660 5661 5663 5663 5664 5665
5679 5677 5677 5678 5677 5675 5675 5673 5672 5671 5670 5668 5665 5663 5660 5659 5659 5657 5654 5652 5650 5649 5649 5649 5649 5651 5652 5655 5656 5657 5657 5656 5657 5656 5657 5657 5658 5658 5658 5657 5657 5657 5659
5668 5668 5668 5668 5667 5666 5665 5665 5664 5663 5662 5660 5659 5657 5655 5654 5654 5654 5652 5649 5647 5646 5645 5644 5645 5647 5648 5648 5650 5652 5652 5653 5654 5653 5652 5654 5654 5654 5653 5652 5652 5653 5654
5658 5658 5658 5658 5657 5657 5656 5656 5655 5654 5653 5653 5652 5651 5650 5649 5649 5649 5649 5646 5644 5642 5641 5641 5640 5641 5642 5643 5643 5644 5645 5647 5648 5649 5649 5649 5650 5650 5649 5649 5648 5647 5649
5650 5650 5650 5649 5649 5649 5648 5647 5646 5645 5645 5644 5643 5643 5642 5642 5644 5644 5644 5641 5639 5638 5637 5637 5636 5637 5639 5639 5638 5638 5639 5641 5642 5643 5644 5644 5644 5644 5643 5642 5641 5640 5641
5643 5643 5642 5642 5641 5640 5639 5638 5637 5636 5635 5635 5633 5633 5633 5633 5635 5637 5638 5635 5633 5632 5632 5632 5632 5632 5634 5635 5633 5633 5633 5635 5636 5637 5638 5639 5639 5639 5639 5638 5637 5635 5635
5637 5636 5635 5634 5633 5631 5629 5627 5626 5625 5624 5623 5622 5622 5622 5623 5625 5627 5628 5626 5625 5625 5624 5624 5626 5628 5629 5630 5630 5629 5630 5630 5630 5631 5631 5632 5633 5634 5634 5634 5634 5633 5632
5632 5630 5628 5625 5624 5622 5619 5617 5615 5614 5613 5612 5612 5611 5612 5612 5614 5616 5617 5618 5618 5617 5616 5617 5618 5620 5623 5624 5625 5625 5625 5625 5624 5624 5624 5625 5626 5626 5627 5628 5628 5628 5628
5627 5624 5621 5618 5615 5612 5610 5608 5606 5605 5604 5603 5603 5602 5602 5603 5604 5606 5606 5607 5607 5607 5607 5609 5610 5611 5613 5615 5617 5618 5619 5618 5618 5617 5617 5618 5618 5618 5619 5619 5619 5620 5620
5624 5620 5617 5614 5610 5607 5604 5602 5600 5599 5597 5596 5596 5596 5596 5596 5597 5597 5597 5596 5596 5597 5597 5598 5600 5601 5602 5604 5606 5608 5609 5610 5610 5610 5610 5609 5610 5610 5610 5610 5610 5610 5610
5623 5619 5616 5612 5608 5604 5601 5598 5596 5594 5592 5591 5590 5590 5590 5590 5589 5589 5589 5588 5587 5587 5588 5589 5590 5591 5592 5594 5596 5598 5600 5602 5602 5602 5602 5602 5602 5602 5602 5602 5602 5602 5602
5624 5620 5616 5613 5609 5604 5600 5597 5594 5592 5590 5589 5588 5587 5586 5586 5586 5586 5585 5584 5583 5583 5582 5581 5581 5582 5584 5587 5589 5591 5592 5593 5594 5595 5595 5595 5595 5594 5594 5594 5594 5594 5594
5627 5623 5619 5615 5611 5606 5601 5597 5594 5592 5591 5589 5587 5586 5586 5585 5585 5584 5582 5581 5579 5578 5577 5576 5577 5578 5579 5581 5582 5584 5585 5586 5588 5588 5588 5587 5587 5587 5587 5587 5586 5586 5586
5631 5627 5623 5618 5614 5609 5605 5600 5596 5593 5590 5588 5587 5586 5586 5585 5584 5583 5582 5580 5576 5574 5572 5572 5572 5573 5575 5576 5577 5578 5579 5580 5581 5581 5580 5580 5580 5579 5579 5578 5577 5577 5576
5635 5630 5626 5622 5617 5613 5608 5604 5599 5595 5592 5589 5588 5587 5586 5585 5584 5581 5580 5577 5573 5571 5570 5570 5570 5570 5571 5572 5572 5573 5573 5573 5573 5573 5573 5572 5572 5572 5571 5570 5569 5568 5567
5639 5636 5631 5626 5621 5617 5612 5608 5603 5599 5595 5593 5590 5588 5587 5586 5584 5581 5579 5576 5574 5572 5570 5570 5569 5569 5569 5569 5569 5569 5569 5568 5568 5568 5567 5566 5565 5565 5564 5563 5561 5560 5559
5643 5639 5635 5629 5625 5620 5616 5612 5607 5603 5599 5596 5593 5591 5590 5587 5585 5583 5580 5578 5575 5574 5572 5571 5569 5568 5568 5567 5567 5567 5566 5565 5564 5563 5562 5561 5560 5559 5558 5556 5555 5553 5551
5646 5641 5636 5632 5628 5624 5620 5615 5611 5607 5604 5600 5597 5595 5593 5591 5588 5586 5583 5580 5577 5575 5573 5572 5570 5568 5567 5566 5565 5564 5563 5562 5561 5560 5559 5558 5556 5555 5553 5550 5548 5546 5543
5648 5644 5639 5635 5631 5627 5622 5618 5615 5611 5608 5604 5601 5598 5596 5593 5591 5588 5585 5581 5579 5576 5574 5573 5571 5569 5567 5566 5565 5564 5562 5561 5559 5558 5557 5556 5554 5551 5548 5545 5543 5540 5537
5651 5646 5642 5637 5633 5629 5625 5622 5618 5615 5611 5608 5605 5602 5599 5596 5593 5590 5587 5583 5580 5578 5576 5574 5572 5570 5569 5568 5567 5565 5564 5562 5561 5560 5557 5555 5552 5549 5546 5542 5539 5536 5532
5652 5648 5644 5640 5636 5632 5628 5625 5621 5618 5615 5611 5608 5605 5602 5598 5595 5592 5589 5585 5582 5579 5577 5575 5574 5573 5571 5570 5569 5567 5566 5565 5563 5562 5559 5555 5552 5548 5544 5541 5537 5533 5529
5653 5650 5647 5643 5639 5635 5632 5628 5625 5621 5618 5614 5611 5608 5604 5601 5597 5594 5590 5587 5584 5581 5579 5577 5576 5574 5573 5572 5570 5569 5568 5566 5564 5562 5559 5555 5551 5547 5544 5539 5535 5531 5527